Location: Dannhausen
(51.8650°N, 10.1026°E)
Time: 13:56:59
(UTC+00:00)

Sich 1 - Visible Passes

Search period start: 06 August 2020 00:00
Search period end: 16 August 2020 00:00
Orbit: 595 x 624 km, 82.5° (Epoch: 05 August)

Date Brightness Start Highest point End Pass type
(mag) Time Alt. Az. Time Alt. Az. Time Alt. Az.
06 Aug 4.0 19:33:04 10° SSE 19:36:57 31° E 19:40:52 10° NNE visible
06 Aug 4.7 21:10:31 10° SW 21:14:34 34° WNW 21:18:41 10° N visible
07 Aug 3.4 19:47:01 10° SSE 19:51:17 49° E 19:55:35 10° NNE visible
07 Aug 5.4 21:25:41 10° WSW 21:29:14 23° WNW 21:32:49 10° NNW visible
08 Aug 3.0 20:01:15 10° S 20:05:41 79° E 20:10:09 10° NNE visible
08 Aug 5.9 21:41:17 10° W 21:43:58 16° WNW 21:46:41 10° NNW visible
09 Aug 3.5 20:15:45 10° SSW 20:20:09 66° WNW 20:24:37 10° N visible
09 Aug 6.3 21:57:57 10° WNW 21:58:47 10° NW 21:59:37 10° NW visible
10 Aug 4.4 20:30:30 10° SW 20:34:42 41° WNW 20:38:57 10° N visible
11 Aug 5.2 20:45:32 10° SW 20:49:20 27° WNW 20:53:09 10° N visible
12 Aug 3.1 19:21:30 10° S 19:25:53 65° E 19:30:18 10° NNE visible
12 Aug 5.9 21:00:56 10° WSW 21:04:02 18° WNW 21:07:09 10° NNW visible
13 Aug 3.3 19:35:53 10° SSW 19:40:20 80° W 19:44:48 10° N visible
13 Aug 6.2 21:16:56 10° W 21:18:49 12° WNW 21:20:42 10° NNW visible
14 Aug 4.1 19:50:32 10° SSW 19:54:50 50° WNW 19:59:11 10° N visible
15 Aug 5.0 20:05:27 10° SW 20:09:27 32° WNW 20:13:27 10° N visible
